User: anonymous   Login
Location: Iola
(37.9240°N, 95.4000°W)
Time: 05:04:13
(UTC-05:00)
Language:

Meteor 2-10 Rocket - Orbit

View from above orbital plane
View from above orbital plane
View from above satellite
View from above satellite

Ground track
Ground track

The orbit data is extracted from the following two-line orbital elements,

1 14453U 83109B   16271.79230761  .00000052  00000-0  15202-4 0  9991
2 14453  81.1699  10.2653 0106052 102.7542 258.5514 14.24656352710168
Epoch (UTC): 27 September 2016 19:00:55
Eccentricity: 0.0106052
inclination: 81.1699°
perigee height: 733 km
apogee height: 886 km
right ascension of ascending node: 10.2653°
argument of perigee: 102.7542°
revolutions per day: 14.24656352
mean anomaly at epoch: 258.5514°
orbit number at epoch: 71016

The dashed part of the orbit path shows where the satellite is in the earth's shadow,  

DLR